Snowfall_Accumulation
0.0 0.0 0.0 0.0 0.0 0.0 0.0 0.0 0.0 0.0 0.0 0.0 0.0 0.0 0.0 0.0 0.0 0.0 0.0 0.0 2.6 15.3 0.6 0.0 0.0 1.7 1.7 2.8 7.3 4.2 7.7 3.6 6.3 11.1 8.3 7.5 7.0 5.3 2.9 0.1 2.5 7.0 4.8 3.5 4.5 12.7 5.4 0.1 0.0 2.2 4.2 0.9 4.0 6.6
0.0 0.0 0.0 0.0 0.0 0.0 0.0 0.0 0.0 0.0 0.0 0.0 0.0 0.0 0.0 0.0 0.0 0.0 0.3 0.0 0.0 5.4 4.3 0.3 0.1 0.0 0.3 1.2 4.2 3.8 6.9 4.6 5.3 10.2 11.7 10.7 10.4 8.0 1.5 4.0 0.2 11.6 6.5 5.2 2.0 0.7 0.4 0.2 0.5 0.4 0.2 1.9 2.3 8.0
0.0 0.0 0.0 0.0 0.0 0.0 0.0 0.0 0.0 0.0 0.0 0.0 0.0 0.0 0.0 0.0 0.0 0.0 0.0 0.0 0.7 10.5 5.5 2.8 2.2 0.3 0.0 0.0 1.0 8.7 3.1 6.2 7.3 8.8 18.2 10.2 15.5 6.6 6.6 3.5 2.5 1.4 0.7 1.8 0.9 0.7 1.1 0.9 0.0 0.0 0.2 1.2 1.9 4.0
0.0 0.0 0.0 0.0 0.0 0.0 0.0 0.0 0.0 0.0 0.0 0.0 0.0 0.0 0.0 0.0 0.0 0.0 0.0 0.0 1.5 10.1 14.9 3.5 0.0 0.9 0.1 0.0 0.8 1.0 2.9 3.8 9.6 11.7 29.2 27.1 17.4 6.1 6.2 5.4 5.0 2.2 0.3 0.4 0.5 2.4 1.7 1.0 0.2 0.3 0.6 1.1 0.8 0.2
0.0 0.0 0.0 0.0 0.0 0.0 0.0 0.0 0.0 0.0 0.0 0.0 0.0 0.0 0.0 0.0 0.0 0.0 0.0 0.0 0.0 8.8 11.2 3.2 1.1 1.1 0.4 0.1 1.7 3.9 8.0 12.5 23.5 35.3 38.4 29.7 10.8 12.1 5.6 9.8 8.0 2.5 3.2 3.7 2.2 0.7 2.4 0.6 0.4 0.1 1.3 1.1 1.2 2.4
0.0 0.0 0.0 0.0 0.0 0.0 0.0 0.0 0.0 0.0 0.0 0.0 0.0 0.0 0.0 0.0 0.0 0.7 3.8 1.8 1.3 3.2 12.9 13.8 2.1 2.2 1.7 1.9 5.3 8.3 9.2 14.3 17.4 20.0 24.5 17.9 10.7 16.8 20.4 12.5 4.6 2.3 1.0 1.8 2.8 0.0 0.2 0.5 0.5 0.3 1.6 0.9 2.0 2.5
0.0 0.0 0.0 0.0 0.0 0.0 0.0 0.0 0.0 0.0 0.0 0.0 0.0 0.0 0.0 0.0 0.0 3.2 3.7 1.7 1.0 2.1 11.0 24.2 7.5 3.6 3.4 3.7 4.9 7.8 7.6 10.0 12.8 15.3 17.6 13.2 11.9 12.9 17.1 10.2 6.6 3.8 2.1 0.9 0.1 1.9 1.3 0.4 1.8 0.6 1.3 1.2 1.7 2.4
0.0 0.0 0.0 0.0 0.0 0.0 0.0 0.0 0.0 0.0 0.0 0.0 0.0 0.0 0.0 0.0 0.0 2.9 1.0 0.0 1.5 5.3 8.6 29.5 12.6 5.1 2.4 4.8 7.7 3.5 9.7 8.3 11.2 12.0 12.2 10.8 9.9 11.7 23.2 12.3 10.1 7.1 4.1 2.7 2.0 1.6 2.9 2.1 1.3 1.5 1.4 1.4 1.6 3.4
0.0 0.0 0.0 0.0 0.0 0.0 0.0 0.0 0.0 0.0 0.0 0.0 0.0 0.0 0.0 8.2 11.1 8.3 0.0 0.0 1.4 6.9 31.9 19.1 9.6 9.3 2.6 4.1 6.7 9.2 8.6 16.2 9.2 16.5 11.1 6.0 9.6 23.9 20.5 15.3 11.8 10.5 8.1 8.5 3.5 4.0 4.3 4.0 4.7 4.1 4.4 4.6 5.0 8.7
0.0 0.0 0.0 0.0 0.0 0.0 0.0 0.0 0.0 0.0 0.0 0.0 0.0 14.2 47.1 18.0 0.0 0.1 11.0 20.0 29.1 25.2 22.3 19.7 1.5 6.3 3.1 4.0 8.5 10.5 9.6 11.7 18.7 10.6 4.9 15.3 22.6 21.7 20.4 18.0 16.6 15.2 14.3 10.1 6.7 9.5 6.2 6.1 7.9 8.5 10.6 11.0 11.7 13.3
0.0 0.0 0.0 0.0 0.0 0.0 0.0 0.0 0.0 0.0 0.0 0.5 28.1 43.3 22.4 0.5 11.8 20.3 49.1 47.9 28.2 28.7 8.9 5.7 4.0 6.8 3.4 10.4 10.0 10.2 17.9 11.8 23.1 7.1 4.8 12.6 20.8 27.8 20.5 17.8 17.8 17.0 16.3 16.5 13.9 14.2 11.0 11.8 12.9 11.0 11.5 12.2 12.3 11.3
0.0 0.0 0.0 0.0 0.0 0.0 0.0 0.0 0.0 0.3 12.4 3.7 11.8 12.5 19.6 33.7 44.4 55.2 49.5 23.9 15.8 4.5 2.7 5.1 6.0 5.5 4.7 5.1 16.6 18.5 26.1 25.3 21.0 5.1 11.7 17.7 26.5 23.6 17.8 19.5 18.9 17.3 14.9 17.0 13.1 13.5 13.2 12.2 11.4 11.0 10.8 10.6 10.2 10.4
0.0 0.0 0.0 0.0 0.0 0.0 0.0 0.0 0.0 0.0 0.1 15.9 47.5 80.5 71.4 66.7 66.7 46.3 25.2 9.8 4.1 3.0 3.7 6.2 6.1 2.7 3.2 8.7 23.2 27.3 29.0 18.0 5.7 13.1 9.6 18.0 20.0 17.0 17.0 14.7 15.6 15.5 14.4 14.3 13.0 13.7 11.7 11.1 8.4 7.2 8.3 10.5 8.2 6.8
0.0 0.0 0.0 0.0 0.0 0.0 0.0 0.0 0.0 0.0 6.1 68.6 104.1 115.0 65.4 54.2 22.5 12.2 7.6 5.9 5.0 5.4 4.2 2.9 3.0 4.4 4.3 18.9 20.7 30.5 14.1 13.7 16.2 9.6 9.9 14.0 11.9 10.5 9.5 11.1 9.1 10.6 9.1 8.4 9.4 8.4 6.5 4.3 4.4 3.9 4.1 3.5 2.7 2.5
0.0 0.0 0.0 0.0 0.0 0.0 0.0 0.0 0.0 0.3 28.0 105.4 79.8 68.3 41.1 14.5 9.8 7.0 4.8 4.1 2.5 2.3 2.6 2.3 4.2 9.1 13.5 30.4 22.2 15.1 23.6 7.3 3.4 5.6 7.8 9.1 7.5 5.4 4.1 4.0 6.3 5.6 4.9 3.7 3.2 2.8 2.7 3.1 2.9 2.9 2.9 2.4 1.7 1.5
0.0 0.0 0.0 0.0 0.0 0.0 0.3 0.0 7.0 26.1 102.6 103.7 74.4 40.6 12.5 3.6 3.8 2.0 1.8 2.0 1.1 1.3 3.9 11.0 25.8 35.5 23.6 18.6 24.0 8.4 10.8 7.7 7.4 6.4 7.9 5.4 2.1 2.1 2.3 4.0 5.0 3.8 3.9 3.9 3.2 2.4 2.7 2.8 2.2 2.5 2.4 2.2 2.0 2.1
0.0 1.7 0.0 0.0 0.0 0.0 0.0 3.1 54.9 119.4 125.0 107.1 48.9 14.4 7.8 6.2 6.3 3.7 2.1 1.6 1.8 6.8 12.9 25.1 41.3 22.3 14.4 23.2 12.5 5.1 9.3 8.8 6.8 6.7 3.5 2.5 2.9 2.8 3.2 3.4 4.1 3.4 3.8 4.0 4.0 2.7 2.1 1.5 1.4 1.3 1.8 1.8 1.9 1.9
0.7 0.0 0.0 0.0 0.5 8.1 22.4 51.4 100.6 125.7 111.7 40.7 15.7 7.6 5.3 5.2 4.9 3.9 3.1 2.9 5.6 11.4 16.5 27.2 21.8 32.3 24.7 16.0 10.9 13.0 12.2 9.9 5.9 4.3 3.5 4.9 4.5 3.5 2.8 4.4 4.4 4.4 4.1 3.1 2.3 2.3 2.1 1.6 1.4 1.6 1.4 2.0 1.9 1.7
0.1 0.1 0.0 0.0 0.2 30.2 115.3 123.9 81.5 89.3 36.3 11.2 7.7 6.3 5.5 4.2 2.6 3.4 3.9 4.8 5.9 8.4 22.2 39.3 45.6 33.4 13.2 16.3 17.2 12.6 8.4 5.8 4.7 4.3 5.1 5.0 3.7 3.1 3.3 3.1 2.6 3.2 3.6 3.0 2.3 1.8 1.7 0.9 1.0 1.8 2.0 2.4 3.3 2.3
0.0 0.0 0.5 1.3 0.5 95.8 127.2 100.2 50.6 39.7 21.3 12.0 7.7 9.3 9.3 6.9 4.8 5.9 7.6 7.9 9.2 19.3 38.0 40.2 15.6 11.5 12.4 14.0 12.4 10.5 7.9 5.7 5.6 5.0 4.0 2.9 3.3 3.5 3.2 2.6 1.7 2.4 2.3 1.5 1.4 1.2 2.0 1.5 0.7 0.2 1.6 3.3 5.1 3.9
4.8 9.2 8.4 4.2 48.3 80.7 83.5 53.2 39.9 28.1 18.4 16.2 16.4 12.3 15.4 10.8 9.3 8.4 10.1 7.9 20.8 31.3 24.7 15.6 13.0 12.1 12.2 11.5 7.9 7.0 6.6 5.4 5.4 5.4 5.5 4.3 3.0 2.0 1.6 1.7 1.4 1.1 1.1 1.0 0.8 1.2 0.8 1.4 1.3 1.0 1.8 2.5 1.8 3.3
12.5 4.8 26.1 29.3 95.8 95.6 78.8 42.0 27.7 20.4 15.1 18.5 17.8 15.7 18.4 18.2 17.6 17.3 14.8 25.4 29.1 15.3 13.0 12.8 10.4 9.3 7.8 6.6 5.5 5.6 4.6 4.3 4.0 2.9 3.4 3.3 2.4 0.8 0.5 1.7 1.2 1.8 1.9 1.4 2.0 2.4 1.2 0.8 2.1 3.9 2.9 2.3 2.8 3.0
3.6 12.4 55.1 74.8 95.6 71.2 57.3 28.7 28.8 26.6 31.5 31.9 24.1 23.6 25.7 20.4 22.5 18.5 31.1 20.4 15.3 13.1 11.2 9.7 7.9 8.4 6.9 6.1 4.0 2.6 3.0 2.9 2.6 1.6 1.6 0.7 1.0 0.9 0.8 2.3 2.0 4.4 3.4 1.1 0.6 3.4 3.1 1.8 1.7 4.4 3.2 2.6 3.0 3.6
8.5 73.5 95.4 85.0 61.3 49.6 29.0 25.0 20.5 16.1 23.3 24.1 24.4 24.4 17.7 17.0 20.6 26.8 22.3 10.8 11.5 10.6 9.3 9.7 8.0 6.1 6.0 4.8 4.7 3.0 2.4 1.5 2.1 1.7 1.8 1.6 2.0 1.2 0.8 2.6 2.5 1.6 2.1 2.5 3.5 3.7 3.3 4.0 3.8 4.5 4.3 5.3 4.9 7.1
108.3 110.0 70.2 61.4 31.5 19.7 12.7 13.8 14.3 14.3 12.0 12.9 16.0 18.6 16.0 16.8 24.5 21.4 11.9 10.8 12.1 12.6 10.4 8.1 6.3 5.9 4.5 3.8 2.7 3.2 3.5 4.3 5.1 3.5 1.7 2.7 4.9 5.4 2.3 2.1 1.4 1.3 3.8 7.6 5.8 4.7 3.9 5.8 6.6 5.5 4.8 6.9 8.3 8.4
85.0 43.7 37.6 14.2 8.2 5.7 6.8 7.7 9.3 9.2 9.6 13.3 17.2 15.1 16.4 20.4 20.4 15.4 8.6 9.4 10.4 11.5 10.8 8.9 5.5 4.1 4.9 4.3 6.1 4.9 3.8 4.2 6.2 8.0 4.5 4.7 5.9 8.9 6.5 3.8 2.9 3.0 2.5 10.9 16.4 13.9 8.9 6.7 8.8 7.3 7.7 5.5 7.5 13.0
44.9 22.8 13.1 5.6 6.1 7.7 8.5 8.7 7.3 9.1 14.4 14.1 9.8 7.2 13.3 21.9 10.1 6.1 5.4 7.5 9.4 9.8 9.5 8.9 8.0 6.8 5.9 5.9 6.2 6.6 7.2 7.8 8.0 4.7 6.0 6.7 6.6 5.6 9.1 16.1 13.1 3.4 7.8 13.5 14.8 16.2 17.2 12.0 10.7 10.5 10.6 8.4 7.9 8.9
11.2 3.9 3.1 3.3 4.2 7.1 10.1 9.5 9.2 8.9 9.4 7.3 8.0 7.9 9.9 7.2 4.7 5.1 6.5 6.0 7.9 9.1 10.1 10.6 9.7 8.0 8.5 8.1 8.9 11.7 12.7 10.6 10.3 9.0 8.1 7.4 6.6 9.6 10.3 11.6 12.1 12.6 16.0 16.5 23.1 24.3 20.7 17.3 16.2 13.4 12.5 12.7 7.2 7.3
4.9 2.9 2.6 5.7 8.4 10.6 11.1 8.9 7.5 5.2 4.9 5.2 7.9 7.3 6.1 4.2 4.0 4.1 5.2 6.9 8.5 9.2 10.3 10.9 11.5 11.6 13.3 12.9 13.0 13.3 14.4 14.2 14.6 11.0 5.3 5.4 5.8 8.1 12.9 14.2 14.0 15.7 14.7 14.5 10.7 15.5 22.8 26.2 25.6 27.3 23.9 17.0 9.9 10.7
4.7 4.2 6.3 7.1 6.4 5.0 5.1 4.5 5.2 4.7 6.9 8.7 7.8 7.8 5.3 5.2 5.7 5.4 4.6 4.8 7.1 9.8 12.7 13.7 14.5 17.0 15.5 13.8 14.7 15.4 18.0 18.7 17.7 17.8 15.5 7.9 7.1 8.4 12.9 17.0 16.9 14.4 15.3 17.1 16.2 14.5 11.6 13.4 13.6 14.0 13.2 13.1 13.2 13.0
4.8 6.2 5.6 5.1 4.1 3.1 5.4 7.8 9.6 9.7 9.5 9.0 8.0 7.9 6.7 5.2 5.0 4.0 3.4 4.4 5.6 8.9 12.6 14.2 15.7 17.9 17.8 15.0 15.7 15.7 15.5 15.2 16.0 16.2 17.6 20.0 16.6 17.7 19.1 19.7 18.7 19.0 18.5 19.4 16.7 16.1 15.0 12.5 10.7 11.3 10.4 10.3 10.7 10.1
6.0 7.0 6.6 5.9 4.8 6.9 9.0 9.1 8.5 7.3 6.9 6.2 5.8 5.0 5.8 5.1 4.1 3.1 2.5 4.2 6.1 9.4 13.1 15.1 15.9 15.4 14.7 15.8 14.5 15.1 14.8 14.7 13.6 15.1 17.4 20.6 20.7 20.3 18.1 20.6 20.1 20.8 20.6 19.3 17.1 17.0 16.6 15.7 16.0 14.8 14.3 13.5 12.6 11.9
8.5 8.1 7.6 8.1 8.5 7.3 7.4 6.9 7.4 6.9 5.4 5.0 4.5 4.1 4.1 4.5 5.1 4.1 4.0 6.0 8.8 10.7 10.7 10.4 11.8 14.4 14.5 13.7 13.2 13.8 13.2 16.1 15.5 15.1 18.7 22.0 22.9 24.8 28.5 26.6 22.9 22.8 21.2 22.1 20.3 18.9 19.0 17.7 16.2 14.1 14.3 14.2 14.4 14.2